STARLINK-11154, 61059

Orbit data source: Space-Track

STARLINK-11154, 61059 is a payload satellite owned by SpaceX/Seattle (US) in LEO that was launched on Fri, 13 Sep 2024 UTC via an FALCON 9 launch vehicle from the Air Force Western Test Range (AFWTR). Payload-class satellites include a variety of spacecraft equipped with specific instruments for various scientific and technological missions. These include communications satellites like Starlink; space stations such as the ISS; scientific satellites like the Hubble; Earth observation satellites from companies like Planet Labs, Umbra, and HawkEye 360; GPS; miniature CubeSats for education and research; and military/defense satellites.

Loading next visibility...
Identifier
61059, 2024-164K
Orbit
LEO
Country
Flag of USUS
Related business
Manufacturer
SpaceX/Seattle
Mission
Operational Commercial Communications
Bus & Motor
STARLINK V2MD, Unknown motor
Mass
960 kg wet, ~910 kg dry
Launch date (UTC)
2024-09-13 (2 years ago)
Launch vehicle
FALCON 9
Launch site
Air Force Western Test Range (AFWTR)
Object type
Payload
Rocket body
Debris
Shape & HBR
Box + 2 Pan, 18.1 m
Radar Cross Section
36.964 m², Large (>1 m²)

Expand to show TLE details & history
Last TLE update: 14 hours ago

TLE from 14 hours ago
0 STARLINK-11154
1 61059U 24164K   26171.24872715 -.00001925  00000-0 -11045-4 0  9995
2 61059  53.1589 165.9307 0000800  94.4080 265.7030 15.69691172101527
Epoch: 2026-06-20T05:58Z
TLE epoch observation values (Epoch: 2026-06-20T05:58:10.025Z)
Latitude
0.00002°
Longitude
167.92288°
Altitude
360.736 km
Speed
7.694 km/s
True Right ascension
11h 03m 43s
True Declination
0° 00' 00"
Sunlit
Object was in daylight at epoch
Visualization orbit readout
Latitude
Unknown
Longitude
Unknown
Altitude
Unknown
Speed
Unknown
Apparent Right ascension
Unknown
Apparent Declination
Unknown
Sunlit
N/A
Visualization observer readout
Local Sidereal Time
07:18:00
Azimuth
Unknown
Elevation
Unknown
Doppler factor
Unknown
Orbital elements
Apogee altitude
360.581 km
Perigee altitude
359.502 km
Semi-major axis
6,738.178 km
Eccentricity
0.00008
Inclination
53.1589°
RAAN
165.9307°
Arg. of periapsis
94.408°
True anomaly
265.69386°
Mean anomaly
265.703°
Eccentric anomaly
265.69843°
Mean motion
3.924 °/min
Orbital period
91.74 mins
BSTAR
-0.000011045
Loading maneuver chart data...
Computing Atmospheric mass density...
Loading historical data...
Loading historical data...
Loading historical data...
Loading historical data...
Loading historical data...
Loading historical data...
Loading historical data...

Documentation

Showing up to 5 results
|